Regional Weather Roundup
Issued by NWS

Home | Current Version | Previous Version | Graphics & Text | Print | Product List | Glossary On
Versions: 1 2 3 4 5 6 7 8 9 10 11 12 13 14 15 16 17 18 19 20 21 22 23 24 25 26 27 28 29 30 31 32 33 34 35 36 37 38 39 40 41 42 43 44 45 46 47 48 49 50
716
ASUS43 KIND 132159
RWRIN

WEATHER ROUNDUP FOR INDIANA
NATIONAL WEATHER SERVICE INDIANAPOLIS IN
500 PM EST WED DEC 13 2017

NOTE: "FAIR" INDICATES FEW OR NO CLOUDS BELOW 12,000 FEET WITH NO
SIGNIFICANT WEATHER AND/OR OBSTRUCTIONS TO VISIBILITY.

* - STATION DOES NOT REPORT WEATHER SUCH AS PRECIPITATION OR FOG.

+ - STATION NOT QUALITY CONTROLLED BY THE NATIONAL WEATHER SERVICE.
    USE DATA WITH CAUTION...ESPECIALLY DEWPOINT AND RELATIVE
    HUMIDITY OBSERVATIONS.

INZ001>003-010>013-019-020-132300-
NORTHWEST INDIANA

CITY           SKY/WX    TMP DP  RH WIND       PRES   REMARKS
GARY /AIRPORT/ CLOUDY    36  34  93 W14G26    29.31R WCI  27
KNOX *+        CLOUDY    32  32 100 SW9       29.30S WCI  24
LA PORTE +     LGT SNOW  33  32  97 SW12      29.29S WCI  24
MICHIGAN CITY+ LGT SNOW  32  32 100 SW9       29.30R WCI  24
MONTICELLO +   LGT RAIN  36  30  80 SW16G24   29.34S WCI  26
RENSSELAER +   DRIZZLE   37  32  81 W20G30    29.34R WCI  27

$$

LMZ046-743>745-132300-
SOUTHERN LAKE MICHIGAN

STATION/POSITION TIME  TEMP    WIND        PRES    WAVE
                       AIR SEA DIR/SP/G            HT
                 (UTC) (F)     (DEG/KT/KT) (MB)    (FT)
BURNS HARBOR     2140   35     250/ 15/ 18  992.9R
MICHIGAN CITY    2130   34     220/ 19/ 22   N/A

$$

INZ004-005-014>016-021>024-132300-
NORTH CENTRAL INDIANA

CITY           SKY/WX    TMP DP  RH WIND       PRES   REMARKS
GOSHEN         LGT SNOW  29  27  92 S10       29.29F VSB 3/4 WCI  20
ROCHESTER +    LGT SNOW  36  34  93 SW12G24   29.32F VSB 1   WCI  27
SOUTH BEND     SNOW      32  32 100 SW14      29.29S VSB 1/2 WCI  22
WARSAW +       SNOW      32  32 100 SW9       29.31F VSB 1/2 WCI  24

$$

INZ006>009-017-018-025>027-132300-
NORTHEAST INDIANA

CITY           SKY/WX    TMP DP  RH WIND       PRES   REMARKS
AUBURN +       CLOUDY    30  23  74 S8        29.35F WCI  23
FORT WAYNE     LGT SNOW  30  27  88 S15       29.35F FOG     WCI  19
KENDALLVILLE + CLOUDY    28  22  77 S13G18    29.33F WCI  18

$$

INZ028-029-035-036-043>045-051>053-132300-
WEST CENTRAL INDIANA

CITY           SKY/WX    TMP DP  RH WIND       PRES   REMARKS
CRAWFORDSVL +  CLOUDY    37  30  75 MISG      29.41F
GREENCASTLE +  CLOUDY    41  27  56 W13G21    29.44S
LAFAYETTE      LGT RAIN  38  33  82 SW14G25   29.36F WCI  30
TERRE HAUTE    CLOUDY    45  25  45 W15       29.46F

$$

INZ030>032-037>040-046>048-054>057-064-065-132300-
CENTRAL INDIANA

CITY           SKY/WX    TMP DP  RH WIND       PRES   REMARKS
COLUMBUS       CLOUDY    41  16  36 SW15G25   29.47F
FRANKFORT +    CLOUDY    40  32  71 W32       29.39S WCI  29
INDIANAPOLIS   CLOUDY    41  22  46 SW20      29.43F
-EAGLE CREEK   CLOUDY    41  24  51 SW18G28   29.41F
KOKOMO +       MIX PCPN  35  29  78 SW21G28   29.36F WCI  24
MT COMFORT *+  CLOUDY    39  27  60 SW20G28   29.42F WCI  30
SHELBYVILLE    CLOUDY    41  20  43 SW15      29.43F

$$

INZ033-034-041-042-049-050-058-059-132300-
EAST CENTRAL INDIANA

CITY           SKY/WX    TMP DP  RH WIND       PRES   REMARKS
MUNCIE         FLURRIES  36  27  69 SW13G21   29.38F WCI  27
RICHMOND +     LGT SNOW  32  21  64 SW26G39   29.46R WCI  18

$$

INZ060-061-067>069-081>083-085>088-132300-
SOUTHWEST INDIANA

CITY           SKY/WX    TMP DP  RH WIND       PRES   REMARKS
EVANSVILLE     CLEAR     49  26  41 SW18G30   29.59R
HUNTINGBURG +  MOCLDY    48  25  40 SW15      29.57R

$$

INZ062-063-066-070>080-084-089>092-132300-
SOUTH CENTRAL AND SOUTHEAST INDIANA

CITY           SKY/WX    TMP DP  RH WIND       PRES   REMARKS
BLOOMINGTON    LGT RAIN  44  22  41 W14G25    29.48R
SEYMOUR +      CLOUDY    45  21  39 SW15G23   29.49F

$$





USA.gov is the U.S. government's official web portal to all federal, state and local government web resources and services.